• In Deutschland
  • Länderverzeichnis
  • Für 7 Tage
  • Wassertemperatur
  • Satellitenkarten
  • Wetterkarte
  • Widgets
  • user-avatar
    Anmelden

    Stündliche Wetter Kutaissi

    Heute, 16 August, Donnerstag

    Zeit Temperatur Niederschläge Wind Luftdruck Luftfeuchtigkeit
    00:00 +24°C° 0 mm 3 m/S 747 mmHg 67%
    01:00 +24°C° 0 mm 3 m/S 747 mmHg 66%
    02:00 +24°C° 0 mm 3 m/S 747 mmHg 65%
    03:00 +24°C° 0 mm 3 m/S 746 mmHg 63%
    04:00 +24°C° 0 mm 3 m/S 746 mmHg 63%
    05:00 +24°C° 0 mm 3 m/S 746 mmHg 63%
    06:00 +24°C° 0 mm 3 m/S 746 mmHg 63%
    07:00 +26°C° 0 mm 3 m/S 746 mmHg 57%
    08:00 +28°C° 0 mm 3 m/S 746 mmHg 51%
    09:00 +31°C° 0 mm 2 m/S 746 mmHg 45%
    10:00 +34°C° 0 mm 2 m/S 745 mmHg 42%
    11:00 +35°C° 0 mm 2 m/S 745 mmHg 39%
    12:00 +36°C° 0 mm 2 m/S 745 mmHg 36%
    13:00 +36°C° 0 mm 2 m/S 745 mmHg 37%
    14:00 +37°C° 0 mm 2 m/S 745 mmHg 38%
    15:00 +37°C° 0 mm 2 m/S 745 mmHg 38%
    16:00 +35°C° 0 mm 2 m/S 745 mmHg 46%
    17:00 +34°C° 0 mm 2 m/S 745 mmHg 54%
    18:00 +31°C° 0 mm 1 m/S 745 mmHg 63%
    19:00 +29°C° 0,1 mm 1 m/S 745 mmHg 69%
    20:00 +27°C° 0,1 mm 1 m/S 745 mmHg 75%
    21:00 +25°C° 0,1 mm 1 m/S 746 mmHg 80%
    22:00 +25°C° 0 mm 1 m/S 746 mmHg 79%
    23:00 +24°C° 0 mm 1 m/S 746 mmHg 77%

    Morgen, 17 August, Freitag

    Zeit Temperatur Niederschläge Wind Luftdruck Luftfeuchtigkeit
    00:00 +24°C° 0 mm 1 m/S 746 mmHg 75%
    01:00 +24°C° 0 mm 1 m/S 746 mmHg 73%
    02:00 +24°C° 0 mm 2 m/S 746 mmHg 70%
    03:00 +24°C° 0 mm 2 m/S 746 mmHg 67%
    04:00 +23°C° 0 mm 2 m/S 746 mmHg 67%
    05:00 +23°C° 0 mm 2 m/S 746 mmHg 67%
    06:00 +23°C° 0 mm 2 m/S 745 mmHg 67%
    07:00 +26°C° 0 mm 1 m/S 745 mmHg 62%
    08:00 +29°C° 0 mm 1 m/S 745 mmHg 56%
    09:00 +31°C° 0 mm 1 m/S 745 mmHg 50%
    10:00 +33°C° 0 mm 1 m/S 745 mmHg 47%
    11:00 +35°C° 0 mm 2 m/S 744 mmHg 44%
    12:00 +36°C° 0 mm 2 m/S 744 mmHg 42%
    13:00 +36°C° 0 mm 2 m/S 744 mmHg 44%
    14:00 +36°C° 0 mm 2 m/S 744 mmHg 46%
    15:00 +35°C° 0 mm 3 m/S 743 mmHg 49%
    16:00 +34°C° 0 mm 3 m/S 743 mmHg 58%
    17:00 +31°C° 0 mm 2 m/S 743 mmHg 67%
    18:00 +30°C° 0 mm 2 m/S 743 mmHg 76%
    19:00 +28°C° 0 mm 1 m/S 744 mmHg 83%
    20:00 +27°C° 0 mm 1 m/S 744 mmHg 90%
    21:00 +23°C° 0 mm 0 m/S 745 mmHg 96%
    22:00 +23°C° 0 mm 0 m/S 745 mmHg 96%
    23:00 +22°C° 0 mm 0 m/S 745 mmHg 95%

    übermorgen, 18 August, Samstag

    Zeit Temperatur Niederschläge Wind Luftdruck Luftfeuchtigkeit
    00:00 +22°C° 0 mm 0 m/S 745 mmHg 95%
    01:00 +24°C° 0 mm 1 m/S 745 mmHg 93%
    02:00 +24°C° 0 mm 1 m/S 744 mmHg 92%
    03:00 +23°C° 0 mm 1 m/S 744 mmHg 91%
    04:00 +23°C° 0 mm 1 m/S 744 mmHg 88%
    05:00 +23°C° 0 mm 1 m/S 744 mmHg 84%
    06:00 +23°C° 0 mm 1 m/S 744 mmHg 81%
    07:00 +25°C° 0 mm 1 m/S 744 mmHg 74%
    08:00 +28°C° 0 mm 1 m/S 744 mmHg 66%
    09:00 +30°C° 0 mm 1 m/S 744 mmHg 58%
    10:00 +31°C° 0 mm 1 m/S 743 mmHg 56%
    11:00 +32°C° 0 mm 2 m/S 743 mmHg 54%
    12:00 +34°C° 0 mm 2 m/S 743 mmHg 52%
    13:00 +33°C° 0,1 mm 3 m/S 743 mmHg 56%
    14:00 +33°C° 0,1 mm 3 m/S 743 mmHg 60%
    15:00 +31°C° 0,1 mm 3 m/S 743 mmHg 64%
    16:00 +30°C° 0,6 mm 3 m/S 743 mmHg 71%
    17:00 +29°C° 0,6 mm 3 m/S 743 mmHg 78%
    18:00 +28°C° 0,6 mm 2 m/S 743 mmHg 85%
    19:00 +26°C° 0,4 mm 2 m/S 743 mmHg 89%
    20:00 +25°C° 0,4 mm 1 m/S 744 mmHg 93%
    21:00 +24°C° 0,4 mm 1 m/S 745 mmHg 97%
    22:00 +24°C° 0,1 mm 1 m/S 745 mmHg 97%
    23:00 +24°C° 0,1 mm 1 m/S 744 mmHg 96%

    19 August, Sonntag

    Zeit Temperatur Niederschläge Wind Luftdruck Luftfeuchtigkeit
    00:00 +22°C° 0,1 mm 0 m/S 744 mmHg 96%
    01:00 +23°C° 0 mm 1 m/S 744 mmHg 95%
    02:00 +23°C° 0 mm 1 m/S 744 mmHg 94%
    03:00 +23°C° 0 mm 1 m/S 744 mmHg 94%
    04:00 +22°C° 0 mm 1 m/S 744 mmHg 92%
    05:00 +22°C° 0 mm 1 m/S 744 mmHg 91%
    06:00 +22°C° 0 mm 1 m/S 744 mmHg 90%
    07:00 +24°C° 0 mm 1 m/S 744 mmHg 83%
    08:00 +26°C° 0 mm 1 m/S 744 mmHg 75%
    09:00 +28°C° 0 mm 1 m/S 744 mmHg 68%
    10:00 +30°C° 0 mm 1 m/S 744 mmHg 63%
    11:00 +31°C° 0 mm 2 m/S 743 mmHg 59%
    12:00 +32°C° 0 mm 2 m/S 743 mmHg 55%
    13:00 +31°C° 1,2 mm 2 m/S 743 mmHg 59%
    14:00 +31°C° 1,2 mm 2 m/S 743 mmHg 64%
    15:00 +30°C° 1,2 mm 3 m/S 743 mmHg 69%
    16:00 +29°C° 2,2 mm 2 m/S 743 mmHg 75%
    17:00 +28°C° 2,2 mm 2 m/S 743 mmHg 81%
    18:00 +27°C° 2,2 mm 2 m/S 743 mmHg 87%
    19:00 +26°C° 0,7 mm 1 m/S 744 mmHg 90%
    20:00 +24°C° 0,7 mm 1 m/S 744 mmHg 93%
    21:00 +23°C° 0,7 mm 1 m/S 745 mmHg 96%
    22:00 +23°C° 0,1 mm 1 m/S 745 mmHg 95%
    23:00 +23°C° 0,1 mm 1 m/S 745 mmHg 94%

    20 August, Montag

    Zeit Temperatur Niederschläge Wind Luftdruck Luftfeuchtigkeit
    00:00 +22°C° 0,1 mm 1 m/S 745 mmHg 93%
    01:00 +22°C° 0 mm 1 m/S 745 mmHg 92%
    02:00 +22°C° 0 mm 1 m/S 745 mmHg 91%
    03:00 +22°C° 0 mm 1 m/S 745 mmHg 90%
    04:00 +22°C° 0 mm 1 m/S 745 mmHg 88%
    05:00 +22°C° 0 mm 1 m/S 745 mmHg 86%
    06:00 +22°C° 0 mm 1 m/S 745 mmHg 85%
    07:00 +24°C° 0 mm 1 m/S 745 mmHg 75%
    08:00 +26°C° 0 mm 1 m/S 745 mmHg 66%
    09:00 +29°C° 0 mm 1 m/S 745 mmHg 56%
    10:00 +30°C° 0 mm 2 m/S 745 mmHg 52%
    11:00 +31°C° 0 mm 2 m/S 745 mmHg 48%
    12:00 +32°C° 0 mm 2 m/S 745 mmHg 44%
    13:00 +32°C° 0,1 mm 2 m/S 745 mmHg 46%
    14:00 +32°C° 0,1 mm 2 m/S 745 mmHg 48%
    15:00 +33°C° 0,1 mm 3 m/S 745 mmHg 50%
    16:00 +31°C° 0,3 mm 2 m/S 745 mmHg 59%
    17:00 +29°C° 0,3 mm 2 m/S 745 mmHg 68%
    18:00 +28°C° 0,3 mm 2 m/S 746 mmHg 77%
    19:00 +26°C° 0,4 mm 1 m/S 746 mmHg 83%
    20:00 +25°C° 0,4 mm 1 m/S 747 mmHg 89%
    21:00 +23°C° 0,4 mm 1 m/S 747 mmHg 95%
    22:00 +23°C° 0 mm 1 m/S 747 mmHg 94%
    23:00 +23°C° 0 mm 1 m/S 747 mmHg 94%

    21 August, Dienstag

    Zeit Temperatur Niederschläge Wind Luftdruck Luftfeuchtigkeit
    00:00 +22°C° 0 mm 1 m/S 747 mmHg 93%
    01:00 +22°C° 0 mm 1 m/S 747 mmHg 91%
    02:00 +22°C° 0 mm 1 m/S 747 mmHg 90%
    03:00 +21°C° 0 mm 1 m/S 747 mmHg 88%
    04:00 +21°C° 0 mm 1 m/S 748 mmHg 86%
    05:00 +20°C° 0 mm 2 m/S 748 mmHg 83%
    06:00 +20°C° 0 mm 2 m/S 748 mmHg 81%
    07:00 +24°C° 0 mm 1 m/S 748 mmHg 71%
    08:00 +26°C° 0 mm 1 m/S 748 mmHg 61%
    09:00 +29°C° 0 mm 1 m/S 748 mmHg 51%
    10:00 +30°C° 0 mm 1 m/S 748 mmHg 46%
    11:00 +32°C° 0 mm 2 m/S 748 mmHg 42%
    12:00 +34°C° 0 mm 2 m/S 747 mmHg 38%
    13:00 +34°C° 0 mm 2 m/S 747 mmHg 39%
    14:00 +34°C° 0 mm 2 m/S 747 mmHg 40%
    15:00 +34°C° 0 mm 2 m/S 747 mmHg 40%
    16:00 +32°C° 0 mm 2 m/S 747 mmHg 49%
    17:00 +30°C° 0 mm 2 m/S 747 mmHg 58%
    18:00 +29°C° 0 mm 1 m/S 747 mmHg 67%
    19:00 +27°C° 0 mm 1 m/S 748 mmHg 72%
    20:00 +25°C° 0 mm 1 m/S 748 mmHg 77%
    21:00 +24°C° 0 mm 1 m/S 749 mmHg 82%
    22:00 +24°C° 0 mm 2 m/S 749 mmHg 79%
    23:00 +23°C° 0 mm 2 m/S 749 mmHg 76%
    Mehr zeigen